Hourly Data Report for October 19, 2013

All times are specified in Local Standard Time (LST). Add 1 hour to adjust for Daylight Saving Time where and when it is observed.

PETAWAWA AWOS 2
ONTARIO

45°57'00.000" N
77°19'00.000" W
130.10 m
6106396
71625
YWA

Download Data

Hourly Data (October 2013)
Hourly Data Report for October 19, 2013
Temp Definition
°C
Dew Point Temp Definition
°C
Rel Hum Definition
%
Wind Dir Definition
10's deg

Wind Spd Definition
km/h
Visibility Definition
km
Stn Press Definition
kPa
Hmdx Definition


Wind Chill Definition


Weather Definition


TIME
00:00 6.9 5.5 91   0 15.0 99.40      
01:00 7.2 6.0 92   0 15.0 99.41      
02:00 6.5 5.9 96   0 15.0 99.41      
03:00 6.5 6.0 97   0 15.0 99.39      
04:00 8.4 7.8 96   0 15.0 99.34      
05:00 8.4 7.8 96 12 4 15.0 99.31      
06:00 7.5 6.3 92   0 15.0 99.34      
07:00 8.4 7.0 91 12 6 15.0 99.34      
08:00 8.9 7.8 93 10 6 15.0 99.31      
09:00 9.7 7.8 88 13 6 15.0 99.28      
10:00 10.1 7.1 82 12 7 15.0 99.23      
11:00 10.4 7.7 83 11 6 15.0 99.22     Rain
12:00 11.2 7.7 79 13 13 15.0 99.11      
13:00 11.5 8.2 80 13 7 15.0 99.06      
14:00 11.4 5.4 67 19 11 15.0 98.98     Rain
15:00 9.7 7.2 84 13 6 14.5 98.92     Rain
16:00 9.7 7.2 84 11 6 15.0 98.81     Rain
17:00 9.5 7.5 87 13 9 15.0 98.79     Rain
18:00 9.1 7.5 90 11 6 15.0 98.70     Rain
19:00 8.6 7.6 93   0 15.0 98.64     Rain
20:00 8.3 7.7 96 18 6 8.0 98.58     Rain
21:00 7.9 7.2 95 23 6 9.7 98.55     Rain
22:00 7.4 7.0 97 22 4 12.9 98.52     Rain
23:00 7.2 7.0 99 20 4 15.0 98.49      

Notes on Data Quality.

Legend

  • E = Estimated
  • M = Missing
  • NA = Not Available
  • ‡ = Partner data that is not subject to review by the National Climate Archives
Date modified: